Stations météo

réclame
Mon MeteoGroup
Jerez De La Frontera aeropuert, Espagne (8451): Température de l'air & dewpoint: 18.01.2018 10:00:00 - 24.01.2018 10:00:00 (CET)Jerez De La Frontera aeropuert, Espagne (8451): Vitesse du vent: 18.01.2018 10:00:00 - 24.01.2018 10:00:00 (CET)Jerez De La Frontera aeropuert, Espagne (8451): Direction du vent: 18.01.2018 10:00:00 - 24.01.2018 10:00:00 (CET)Jerez De La Frontera aeropuert, Espagne (8451): reduced air pressure: 18.01.2018 10:00:00 - 24.01.2018 10:00:00 (CET)Jerez De La Frontera aeropuert, Espagne (8451): visibility: 18.01.2018 10:00:00 - 24.01.2018 10:00:00 (CET)
Date & Time tt [°C] td [°C] ff [km/h] ff [knt] dd ppp [hPa] vv [km]
24.01.2018 10:00:00 5,4 5,4 4 2 ENE 1028,2 0,2
24.01.2018 09:00:00 4,2 4,2 2 1 ENE 1028,0 0,2
24.01.2018 08:00:00 4,1 4,1 5 3 N 1027,6 0,5
24.01.2018 07:00:00 3,0 2,9 4 2 ENE 1027,2 0,5
24.01.2018 06:00:00 3,4 3,3 4 2 E 1027,1 1,0
24.01.2018 05:00:00 3,8 3,5 0 0 N 1026,9 2,9
24.01.2018 04:00:00 4,1 3,9 4 2 NNE 1027,1 8
24.01.2018 03:00:00 5,0 4,7 4 2 NNE 1027,0 6
24.01.2018 02:00:00 5,3 5,2 4 2 NE 1027,2 10
24.01.2018 01:00:00 5,7 5,4 4 2 N 1027,6 6
24.01.2018 00:00:00 6,4 6,0 2 1 N 1027,7 10
23.01.2018 23:00:00 7,4 7,0 0 0 N 1027,7 8
23.01.2018 22:00:00 8,7 8,0 0 0 N 1027,5 9
23.01.2018 21:00:00 10,1 8,9 2 1 NNE 1027,5 8
23.01.2018 20:00:00 10,8 9,6 13 7 NW 1027,3 8
23.01.2018 19:00:00 14,0 10,5 8 4 NW 1026,8 10
23.01.2018 18:00:00 17,2 11,1 0 0 N 1026,4 10
23.01.2018 17:00:00 17,8 11,2 2 1 - 1026,2 10
23.01.2018 16:00:00 17,2 10,7 4 2 N 1026,3 15
23.01.2018 15:00:00 15,8 10,7 4 2 NNE 1026,6 10
23.01.2018 14:00:00 13,7 10,1 5 3 ENE 1027,3 10
23.01.2018 13:00:00 11,6 9,3 5 3 ENE 1028,2 4,5
23.01.2018 12:00:00 9,9 8,3 8 4 E 1029,0 3,5
23.01.2018 11:00:00 8,5 7,6 4 2 ENE 1028,8 3,5
23.01.2018 10:00:00 4,7 4,7 5 3 E 1028,3 0,9
23.01.2018 09:00:00 2,5 2,4 0 0 N 1027,7 3,8
23.01.2018 08:00:00 3,7 3,7 2 1 S 1027,1 10
23.01.2018 07:00:00 3,4 3,4 4 2 NW 1026,8 2,5
23.01.2018 06:00:00 3,1 3,0 5 3 S 1026,6 0,8
23.01.2018 05:00:00 3,9 3,9 2 1 WSW 1026,9 10
23.01.2018 04:00:00 4,4 4,4 4 2 S 1026,9 1,3
23.01.2018 03:00:00 5,2 5,2 0 0 N 1027,0 2,5
23.01.2018 02:00:00 4,9 4,8 4 2 NNE 1027,2 0,2
23.01.2018 01:00:00 6,0 6,0 4 2 ENE 1027,6 0,3
23.01.2018 00:00:00 6,0 5,9 5 3 NE 1027,9 0,2
22.01.2018 23:00:00 8,2 8,0 0 0 N 1028,0 6
22.01.2018 22:00:00 8,8 8,2 0 0 N 1027,8 12
22.01.2018 21:00:00 10,7 9,8 4 2 SSE 1028,0 10
22.01.2018 20:00:00 11,7 10,3 8 4 W 1027,9 10
22.01.2018 19:00:00 12,8 10,7 13 7 WNW 1027,3 13
22.01.2018 18:00:00 16,0 12,0 13 7 - 1027,0 10
22.01.2018 17:00:00 17,8 11,8 15 8 NW 1027,0 10
22.01.2018 16:00:00 18,3 11,9 16 9 NNW 1026,9 12
22.01.2018 15:00:00 18,2 12,0 13 7 NNW 1027,3 10
22.01.2018 14:00:00 16,5 11,6 5 3 W 1028,1 10
22.01.2018 13:00:00 13,7 10,6 8 4 S 1029,2 8
22.01.2018 12:00:00 11,7 9,6 0 0 N 1029,8 7
22.01.2018 11:00:00 8,4 8,4 11 6 N 1030,0 4,5
22.01.2018 10:00:00 6,1 6,1 13 7 N 1029,7 0,4
22.01.2018 09:00:00 4,5 4,5 8 4 NNW 1029,5 0,4
22.01.2018 08:00:00 5,3 5,3 8 4 NW 1029,4 0,2
22.01.2018 07:00:00 3,9 3,8 5 3 N 1029,1 6
22.01.2018 06:00:00 4,7 4,6 0 0 N 1028,7 10
22.01.2018 05:00:00 3,8 3,4 8 4 SSW 1029,1 10
22.01.2018 04:00:00 4,4 4,0 4 2 SSE 1029,3 10
22.01.2018 03:00:00 5,1 4,7 0 0 N 1029,1 10
22.01.2018 02:00:00 5,1 4,7 5 3 N 1029,5 10
22.01.2018 01:00:00 5,8 5,4 4 2 ENE 1030,2 10
22.01.2018 00:00:00 6,6 6,0 0 0 N 1030,7 10
21.01.2018 23:00:00 7,3 6,6 4 2 N 1030,7 10
21.01.2018 22:00:00 8,1 7,2 0 0 N 1030,8 15
21.01.2018 21:00:00 9,4 7,7 4 2 SW 1030,8 10
21.01.2018 20:00:00 11,2 8,6 9 5 W 1030,5 10
21.01.2018 19:00:00 12,4 9,4 8 4 NW 1030,0 15
21.01.2018 18:00:00 15,1 10,3 8 4 NW 1029,6 10
21.01.2018 17:00:00 15,7 9,9 13 7 NW 1029,7 10
21.01.2018 16:00:00 15,9 10,1 9 5 NW 1029,9 15
21.01.2018 15:00:00 15,1 11,1 8 4 NW 1030,1 10
21.01.2018 14:00:00 11,4 9,9 4 2 WNW 1031,1 8
21.01.2018 13:00:00 8,4 8,4 4 2 N 1032,1 1,5
21.01.2018 12:00:00 6,9 6,9 2 1 - 1032,7 0,2
21.01.2018 11:00:00 6,0 6,0 2 1 E 1032,5 0,1
21.01.2018 10:00:00 5,0 5,0 2 1 SSE 1031,7 0,1
21.01.2018 09:00:00 4,8 4,8 2 1 ENE 1031,2 -
21.01.2018 08:00:00 4,7 4,7 4 2 ESE 1030,9 -
21.01.2018 07:00:00 4,7 4,7 0 0 N 1030,3 0,2
21.01.2018 06:00:00 4,6 4,6 5 3 NE 1030,0 0,2
21.01.2018 05:00:00 5,8 5,8 4 2 E 1030,3 -
21.01.2018 04:00:00 6,1 6,1 4 2 ENE 1030,4 0,1
21.01.2018 03:00:00 6,0 6,0 0 0 N 1030,5 0,1
21.01.2018 02:00:00 5,8 5,8 0 0 N 1030,8 0,1
21.01.2018 01:00:00 5,8 5,7 0 0 N 1031,3 0,1
21.01.2018 00:00:00 6,7 6,6 2 1 NNE 1031,2 -
20.01.2018 23:00:00 8,3 8,3 5 3 SSE 1031,2 0,1
20.01.2018 22:00:00 9,0 8,9 4 2 S 1031,1 0,1
20.01.2018 21:00:00 8,7 8,4 5 3 S 1030,7 -
20.01.2018 20:00:00 10,5 9,6 8 4 S 1030,3 0,9
20.01.2018 19:00:00 14,3 11,3 11 6 WSW 1029,6 25
20.01.2018 18:00:00 17,9 8,5 8 4 WSW 1029,1 10
20.01.2018 17:00:00 18,3 8,3 8 4 W 1028,7 10
20.01.2018 16:00:00 18,2 9,9 8 4 WNW 1028,8 30
20.01.2018 15:00:00 16,9 11,0 2 1 NW 1029,1 10
20.01.2018 14:00:00 15,1 12,2 2 1 NNW 1029,5 10
20.01.2018 13:00:00 12,0 12,0 2 1 ESE 1030,3 0,9
20.01.2018 12:00:00 10,8 10,8 0 0 N 1030,8 0,2
20.01.2018 11:00:00 9,0 9,0 4 2 NE 1030,5 0,3
20.01.2018 10:00:00 7,2 7,2 4 2 ENE 1029,7 6
20.01.2018 09:00:00 5,7 5,7 5 3 NNE 1029,2 1,5
20.01.2018 08:00:00 5,5 5,5 8 4 NNE 1028,6 0,1
20.01.2018 07:00:00 6,0 6,0 0 0 N 1027,5 0,1
20.01.2018 06:00:00 6,2 6,2 5 3 ENE 1027,0 0,2
20.01.2018 05:00:00 6,2 6,2 5 3 NE 1026,9 0,1
20.01.2018 04:00:00 6,1 6,1 5 3 E 1026,9 0,1
20.01.2018 03:00:00 4,6 4,4 5 3 E 1026,6 4,9
20.01.2018 02:00:00 5,2 4,9 8 4 NE 1026,4 8
20.01.2018 01:00:00 5,0 4,6 8 4 NNE 1026,8 10
20.01.2018 00:00:00 5,6 5,0 4 2 NE 1026,6 10
19.01.2018 23:00:00 6,9 6,0 2 1 ENE 1026,5 10
19.01.2018 22:00:00 7,9 6,7 0 0 N 1026,0 15
19.01.2018 21:00:00 9,3 7,3 5 3 SE 1025,1 10
19.01.2018 20:00:00 10,2 6,8 5 3 WSW 1024,1 10
19.01.2018 19:00:00 13,6 7,8 4 2 W 1022,8 20
19.01.2018 18:00:00 16,5 8,2 5 3 WNW 1022,3 10
19.01.2018 17:00:00 17,2 8,3 8 4 NW 1021,7 10
19.01.2018 16:00:00 17,4 8,3 11 6 NW 1021,7 10
19.01.2018 15:00:00 17,4 10,4 11 6 NW 1021,3 10
19.01.2018 14:00:00 16,5 10,1 11 6 NW 1021,5 10
19.01.2018 13:00:00 15,9 9,7 4 2 SW 1021,4 40
19.01.2018 12:00:00 12,0 9,1 4 2 SW 1021,7 6
19.01.2018 11:00:00 8,6 7,7 0 0 N 1021,5 6
19.01.2018 10:00:00 5,8 5,5 0 0 N 1021,0 10
19.01.2018 09:00:00 5,4 5,0 2 1 - 1020,2 10
19.01.2018 08:00:00 5,8 5,3 4 2 NE 1019,6 10
19.01.2018 07:00:00 6,3 5,9 0 0 N 1019,0 10
19.01.2018 06:00:00 6,9 6,3 9 5 N 1018,8 10
19.01.2018 05:00:00 7,4 6,5 11 6 NNW 1018,9 10
19.01.2018 04:00:00 6,6 6,0 5 3 N 1019,1 10
19.01.2018 03:00:00 7,1 6,5 5 3 N 1019,3 10
19.01.2018 02:00:00 7,6 6,8 0 0 N 1019,4 10
19.01.2018 01:00:00 8,1 7,2 2 1 - 1019,5 10
19.01.2018 00:00:00 8,8 7,9 2 1 - 1019,3 10
18.01.2018 23:00:00 9,5 8,1 4 2 - 1018,9 10
18.01.2018 22:00:00 10,5 8,3 0 0 N 1019,0 10
18.01.2018 21:00:00 11,6 8,3 5 3 SSW 1019,0 10
18.01.2018 20:00:00 12,4 8,3 9 5 NW 1018,8 10
18.01.2018 19:00:00 14,4 7,9 9 5 NE 1018,9 10
18.01.2018 18:00:00 17,4 8,3 9 5 E 1019,1 10
18.01.2018 17:00:00 18,4 7,0 16 9 ESE 1018,7 10
18.01.2018 16:00:00 19,3 7,8 21 11 ESE 1018,8 10
18.01.2018 15:00:00 20,0 8,5 18 10 ESE 1019,0 10
18.01.2018 14:00:00 18,9 10,1 22 12 E 1019,7 10
18.01.2018 13:00:00 17,2 10,2 8 4 N 1020,6 10
18.01.2018 12:00:00 13,0 9,7 8 4 NNW 1021,6 10
18.01.2018 11:00:00 9,1 7,8 2 1 - 1021,8 10
18.01.2018 10:00:00 4,1 4,0 0 0 N 1021,2 10

tt = Température de l'air
td = dewpoint
ff = Vitesse du vent
dd = Direction du vent
ppp = reduced air pressure
vv = visibility

stations d'obs. à proximité